Time,TemperatureF,DewpointF,PressureIn,WindDirection,WindDirectionDegrees,WindSpeedMPH,WindSpeedGustMPH,Humidity,HourlyPrecipIn,Conditions,Clouds,dailyrainin,SoftwareType,DateUTC
2013-03-07 00:01:00,43.6,42.0,29.73,SSW,202,0.0,2.1,93,0.00,,,0.00,Rainwise IP-100,2013-03-07 08:01:00,
2013-03-07 00:06:00,43.3,41.0,29.73,SSW,202,0.0,0.0,93,0.00,,,0.00,Rainwise IP-100,2013-03-07 08:06:00,
2013-03-07 00:11:00,43.0,41.0,29.73,SSW,202,0.0,0.0,93,0.00,,,0.00,Rainwise IP-100,2013-03-07 08:11:00,
2013-03-07 00:16:00,42.7,41.0,29.73,SSW,202,0.0,0.0,93,0.00,,,0.00,Rainwise IP-100,2013-03-07 08:16:00,
2013-03-07 00:21:00,42.5,41.0,29.73,SSW,202,0.0,0.0,93,0.00,,,0.00,Rainwise IP-100,2013-03-07 08:21:00,
2013-03-07 00:26:00,42.4,40.0,29.73,SSW,202,0.0,0.0,93,0.00,,,0.00,Rainwise IP-100,2013-03-07 08:26:00,
2013-03-07 00:31:00,42.7,41.0,29.73,SSW,202,0.0,1.4,93,0.00,,,0.00,Rainwise IP-100,2013-03-07 08:31:00,
2013-03-07 00:36:00,43.0,41.0,29.73,SSW,202,1.6,2.3,94,0.00,,,0.00,Rainwise IP-100,2013-03-07 08:36:00,
2013-03-07 00:41:00,43.3,41.0,29.73,WSW,247,0.0,2.6,93,0.00,,,0.00,Rainwise IP-100,2013-03-07 08:41:00,
2013-03-07 00:46:00,43.5,42.0,29.73,SW,225,0.0,2.8,93,0.00,,,0.00,Rainwise IP-100,2013-03-07 08:46:00,
2013-03-07 00:51:00,43.6,42.0,29.73,SSW,202,1.4,2.8,93,0.00,,,0.00,Rainwise IP-100,2013-03-07 08:51:00,
2013-03-07 00:56:00,43.7,42.0,29.73,SSW,202,1.9,4.2,93,0.00,,,0.00,Rainwise IP-100,2013-03-07 08:56:00,
2013-03-07 01:01:00,43.8,42.0,29.73,SSW,202,0.0,2.3,93,0.00,,,0.00,Rainwise IP-100,2013-03-07 09:01:00,
2013-03-07 01:06:00,43.8,42.0,29.73,SSW,202,0.0,1.9,92,0.00,,,0.00,Rainwise IP-100,2013-03-07 09:06:00,
2013-03-07 01:11:00,43.8,42.0,29.73,SSW,202,0.0,1.4,92,0.00,,,0.00,Rainwise IP-100,2013-03-07 09:11:00,
2013-03-07 01:16:00,43.8,42.0,29.73,SSW,202,0.0,1.6,92,0.00,,,0.00,Rainwise IP-100,2013-03-07 09:16:00,
2013-03-07 01:21:00,43.6,42.0,29.73,SSW,202,0.0,1.4,92,0.00,,,0.00,Rainwise IP-100,2013-03-07 09:21:00,
2013-03-07 01:26:00,43.5,42.0,29.73,SSW,202,0.0,1.2,92,0.00,,,0.00,Rainwise IP-100,2013-03-07 09:26:00,
2013-03-07 01:31:00,43.4,41.0,29.72,SSW,202,0.0,1.4,92,0.00,,,0.00,Rainwise IP-100,2013-03-07 09:31:00,
2013-03-07 01:36:00,43.2,41.0,29.72,SSW,202,0.0,0.0,92,0.00,,,0.00,Rainwise IP-100,2013-03-07 09:36:00,
2013-03-07 01:41:00,42.9,41.0,29.73,SSW,202,0.0,0.0,92,0.00,,,0.00,Rainwise IP-100,2013-03-07 09:41:00,
2013-03-07 01:46:00,42.6,41.0,29.72,SSW,202,0.0,0.0,92,0.00,,,0.00,Rainwise IP-100,2013-03-07 09:46:00,
2013-03-07 01:51:00,42.5,41.0,29.72,SSW,202,0.0,0.0,92,0.00,,,0.00,Rainwise IP-100,2013-03-07 09:51:00,
2013-03-07 01:56:00,42.6,41.0,29.72,SSW,202,0.0,0.0,93,0.00,,,0.00,Rainwise IP-100,2013-03-07 09:56:00,
2013-03-07 02:01:00,42.7,41.0,29.72,SSW,202,0.0,1.4,93,0.00,,,0.00,Rainwise IP-100,2013-03-07 10:01:00,
2013-03-07 02:06:00,42.7,41.0,29.72,SSW,202,0.0,1.4,93,0.00,,,0.00,Rainwise IP-100,2013-03-07 10:06:00,
2013-03-07 02:11:00,42.5,41.0,29.72,SSW,202,1.2,0.0,93,0.00,,,0.00,Rainwise IP-100,2013-03-07 10:11:00,
2013-03-07 02:16:00,42.5,41.0,29.72,SSW,202,0.0,1.9,94,0.00,,,0.00,Rainwise IP-100,2013-03-07 10:16:00,
2013-03-07 02:21:00,42.5,41.0,29.71,SSW,202,1.2,0.0,93,0.00,,,0.00,Rainwise IP-100,2013-03-07 10:21:00,
2013-03-07 02:26:00,42.5,41.0,29.71,SSW,202,0.0,1.4,93,0.00,,,0.00,Rainwise IP-100,2013-03-07 10:26:00,
2013-03-07 02:31:00,42.4,40.0,29.71,SSW,202,0.0,0.0,93,0.00,,,0.00,Rainwise IP-100,2013-03-07 10:31:00,
2013-03-07 02:36:00,42.4,40.0,29.71,SSW,202,0.0,0.0,93,0.00,,,0.00,Rainwise IP-100,2013-03-07 10:36:00,
2013-03-07 02:41:00,42.4,40.0,29.71,SSW,202,0.0,1.4,94,0.00,,,0.00,Rainwise IP-100,2013-03-07 10:41:00,
2013-03-07 02:46:00,42.3,40.0,29.71,SSW,202,0.0,0.0,94,0.00,,,0.00,Rainwise IP-100,2013-03-07 10:46:00,
2013-03-07 02:51:00,42.2,40.0,29.70,SSW,202,0.0,0.0,93,0.00,,,0.00,Rainwise IP-100,2013-03-07 10:51:00,
2013-03-07 02:56:00,42.4,40.0,29.70,SSW,202,0.0,0.0,93,0.00,,,0.00,Rainwise IP-100,2013-03-07 10:56:00,
2013-03-07 03:01:00,42.5,41.0,29.70,SSW,202,0.0,0.0,92,0.00,,,0.00,Rainwise IP-100,2013-03-07 11:01:00,
2013-03-07 03:06:00,42.5,41.0,29.70,SSW,202,0.0,0.0,92,0.00,,,0.00,Rainwise IP-100,2013-03-07 11:06:00,
2013-03-07 03:11:00,42.5,41.0,29.70,SSW,202,0.0,0.0,93,0.00,,,0.00,Rainwise IP-100,2013-03-07 11:11:00,
2013-03-07 03:16:00,42.5,41.0,29.69,SSW,202,0.0,0.0,92,0.00,,,0.00,Rainwise IP-100,2013-03-07 11:16:00,
2013-03-07 03:21:00,42.2,40.0,29.69,SSW,202,0.0,0.0,92,0.00,,,0.00,Rainwise IP-100,2013-03-07 11:21:00,
2013-03-07 03:26:00,42.0,40.0,29.69,SSW,202,0.0,0.0,92,0.00,,,0.00,Rainwise IP-100,2013-03-07 11:26:00,
2013-03-07 03:32:00,42.0,40.0,29.70,SSW,202,0.0,0.0,93,0.00,,,0.00,Rainwise IP-100,2013-03-07 11:32:00,
2013-03-07 03:37:00,41.9,40.0,29.69,SSW,202,0.0,0.0,93,0.00,,,0.00,Rainwise IP-100,2013-03-07 11:37:00,
2013-03-07 03:42:00,42.0,40.0,29.69,SSW,202,0.0,0.0,93,0.00,,,0.00,Rainwise IP-100,2013-03-07 11:42:00,
2013-03-07 03:47:00,41.8,40.0,29.69,SSW,202,0.0,0.0,93,0.00,,,0.00,Rainwise IP-100,2013-03-07 11:47:00,
2013-03-07 03:52:00,41.8,40.0,29.69,SSW,202,0.0,0.0,92,0.00,,,0.00,Rainwise IP-100,2013-03-07 11:52:00,
2013-03-07 03:57:00,42.2,40.0,29.69,ENE,67,2.1,4.0,92,0.00,,,0.00,Rainwise IP-100,2013-03-07 11:57:00,
2013-03-07 04:02:00,42.9,40.0,29.69,ENE,67,3.5,4.4,91,0.00,,,0.00,Rainwise IP-100,2013-03-07 12:02:00,
2013-03-07 04:07:00,43.6,41.0,29.69,SE,135,2.3,5.1,89,0.00,,,0.00,Rainwise IP-100,2013-03-07 12:07:00,
2013-03-07 04:12:00,44.4,40.0,29.69,ENE,67,0.0,4.9,87,0.00,,,0.00,Rainwise IP-100,2013-03-07 12:12:00,
2013-03-07 04:17:00,44.7,41.0,29.69,ENE,67,4.0,6.1,86,0.00,,,0.00,Rainwise IP-100,2013-03-07 12:17:00,
2013-03-07 04:22:00,45.0,41.0,29.69,ENE,67,5.8,5.8,86,0.00,,,0.00,Rainwise IP-100,2013-03-07 12:22:00,
2013-03-07 04:27:00,45.1,41.0,29.70,ENE,67,2.8,6.1,86,0.00,,,0.00,Rainwise IP-100,2013-03-07 12:27:00,
2013-03-07 04:32:00,45.1,41.0,29.69,ENE,67,2.3,4.7,86,0.00,,,0.00,Rainwise IP-100,2013-03-07 12:32:00,
2013-03-07 04:37:00,45.1,41.0,29.69,East,90,2.3,4.9,85,0.00,,,0.00,Rainwise IP-100,2013-03-07 12:37:00,
2013-03-07 04:42:00,45.2,41.0,29.69,ENE,67,3.0,3.7,85,0.00,,,0.00,Rainwise IP-100,2013-03-07 12:42:00,
2013-03-07 04:47:00,45.3,41.0,29.69,NE,45,1.9,5.1,85,0.00,,,0.00,Rainwise IP-100,2013-03-07 12:47:00,
2013-03-07 04:52:00,45.2,41.0,29.69,ENE,67,2.1,4.2,86,0.00,,,0.00,Rainwise IP-100,2013-03-07 12:52:00,
2013-03-07 04:57:00,45.1,41.0,29.69,ENE,67,1.6,4.0,86,0.00,,,0.00,Rainwise IP-100,2013-03-07 12:57:00,
2013-03-07 05:02:00,45.1,41.0,29.69,ESE,112,2.8,4.4,87,0.00,,,0.00,Rainwise IP-100,2013-03-07 13:02:00,
2013-03-07 05:07:00,45.2,41.0,29.69,East,90,4.2,4.7,87,0.00,,,0.00,Rainwise IP-100,2013-03-07 13:07:00,
2013-03-07 05:12:00,45.4,41.0,29.69,ENE,67,3.3,7.2,88,0.00,,,0.00,Rainwise IP-100,2013-03-07 13:12:00,
2013-03-07 05:17:00,45.5,42.0,29.69,ENE,67,4.9,6.5,88,0.00,,,0.00,Rainwise IP-100,2013-03-07 13:17:00,
2013-03-07 05:22:00,45.5,43.0,29.69,ENE,67,1.4,6.8,89,0.00,,,0.00,Rainwise IP-100,2013-03-07 13:22:00,
2013-03-07 05:27:00,45.5,43.0,29.69,NE,45,2.1,9.1,90,0.00,,,0.00,Rainwise IP-100,2013-03-07 13:27:00,
2013-03-07 05:32:00,45.5,43.0,29.69,East,90,2.3,7.5,90,0.00,,,0.00,Rainwise IP-100,2013-03-07 13:32:00,
2013-03-07 05:37:00,45.4,42.0,29.69,ENE,67,2.6,7.9,90,0.00,,,0.00,Rainwise IP-100,2013-03-07 13:37:00,
2013-03-07 05:42:00,45.4,42.0,29.68,ENE,67,7.2,8.2,90,0.00,,,0.00,Rainwise IP-100,2013-03-07 13:42:00,
2013-03-07 05:47:00,45.5,43.0,29.69,NE,45,5.6,7.9,90,0.00,,,0.00,Rainwise IP-100,2013-03-07 13:47:00,
2013-03-07 05:52:00,45.5,43.0,29.69,NNE,22,7.7,9.6,90,0.00,,,0.00,Rainwise IP-100,2013-03-07 13:52:00,
2013-03-07 05:57:00,45.5,43.0,29.69,East,90,0.0,10.5,90,0.00,,,0.00,Rainwise IP-100,2013-03-07 13:57:00,
2013-03-07 06:02:00,45.5,43.0,29.69,NE,45,3.0,7.7,89,0.00,,,0.00,Rainwise IP-100,2013-03-07 14:02:00,
2013-03-07 06:07:00,45.6,43.0,29.69,NE,45,2.1,7.5,89,0.00,,,0.00,Rainwise IP-100,2013-03-07 14:07:00,
2013-03-07 06:12:00,45.6,43.0,29.69,East,90,0.0,6.8,89,0.00,,,0.00,Rainwise IP-100,2013-03-07 14:12:00,
2013-03-07 06:17:00,45.6,43.0,29.69,ESE,112,2.1,4.9,89,0.00,,,0.00,Rainwise IP-100,2013-03-07 14:17:00,
2013-03-07 06:22:00,45.5,43.0,29.69,ESE,112,0.0,4.4,89,0.00,,,0.00,Rainwise IP-100,2013-03-07 14:22:00,
2013-03-07 06:27:00,45.5,43.0,29.69,SSW,202,1.2,4.2,89,0.00,,,0.00,Rainwise IP-100,2013-03-07 14:27:00,
2013-03-07 06:32:00,45.5,43.0,29.69,ESE,112,1.2,4.2,90,0.00,,,0.00,Rainwise IP-100,2013-03-07 14:32:00,
2013-03-07 06:37:00,45.5,43.0,29.69,East,90,2.3,4.0,90,0.00,,,0.00,Rainwise IP-100,2013-03-07 14:37:00,
2013-03-07 06:42:00,45.5,43.0,29.69,ENE,67,2.3,7.0,90,0.00,,,0.00,Rainwise IP-100,2013-03-07 14:42:00,
2013-03-07 06:47:00,45.5,43.0,29.69,ESE,112,0.0,5.4,90,0.00,,,0.00,Rainwise IP-100,2013-03-07 14:47:00,
2013-03-07 06:52:00,45.5,43.0,29.69,ESE,112,1.9,2.6,89,0.00,,,0.00,Rainwise IP-100,2013-03-07 14:52:00,
2013-03-07 06:57:00,45.5,43.0,29.68,ESE,112,1.2,3.3,89,0.00,,,0.00,Rainwise IP-100,2013-03-07 14:57:00,
2013-03-07 07:02:00,45.6,42.0,29.68,SSE,157,1.6,5.8,88,0.00,,,0.00,Rainwise IP-100,2013-03-07 15:02:00,
2013-03-07 07:07:00,45.7,42.0,29.68,ESE,112,0.0,8.9,87,0.00,,,0.00,Rainwise IP-100,2013-03-07 15:07:00,
2013-03-07 07:12:00,45.8,42.0,29.68,ENE,67,3.5,5.1,87,0.00,,,0.00,Rainwise IP-100,2013-03-07 15:12:00,
2013-03-07 07:17:00,46.0,42.0,29.68,ESE,112,1.9,7.7,86,0.00,,,0.00,Rainwise IP-100,2013-03-07 15:17:00,
2013-03-07 07:22:00,46.3,41.0,29.69,ESE,112,1.2,5.6,85,0.00,,,0.00,Rainwise IP-100,2013-03-07 15:22:00,
2013-03-07 07:27:00,46.4,41.0,29.68,ENE,67,0.0,6.8,85,0.00,,,0.00,Rainwise IP-100,2013-03-07 15:27:00,
2013-03-07 07:32:00,46.4,41.0,29.69,ESE,112,1.6,4.4,85,0.00,,,0.00,Rainwise IP-100,2013-03-07 15:32:00,
2013-03-07 07:37:00,46.4,41.0,29.69,SE,135,1.2,4.7,85,0.00,,,0.00,Rainwise IP-100,2013-03-07 15:37:00,
2013-03-07 07:42:00,46.4,41.0,29.68,ENE,67,2.6,6.8,85,0.00,,,0.00,Rainwise IP-100,2013-03-07 15:42:00,
2013-03-07 07:47:00,46.3,42.0,29.68,East,90,3.0,4.9,86,0.00,,,0.00,Rainwise IP-100,2013-03-07 15:47:00,
2013-03-07 07:52:00,46.1,42.0,29.69,ENE,67,1.9,10.3,87,0.00,,,0.00,Rainwise IP-100,2013-03-07 15:52:00,
2013-03-07 07:57:00,46.0,42.0,29.69,ENE,67,3.5,9.6,87,0.00,,,0.00,Rainwise IP-100,2013-03-07 15:57:00,
2013-03-07 08:02:00,46.2,42.0,29.68,ENE,67,4.9,9.1,87,0.00,,,0.00,Rainwise IP-100,2013-03-07 16:02:00,
2013-03-07 08:07:00,46.3,42.0,29.69,ENE,67,4.0,8.4,87,0.00,,,0.00,Rainwise IP-100,2013-03-07 16:07:00,
2013-03-07 08:12:00,46.4,42.0,29.69,NE,45,3.3,8.2,87,0.00,,,0.00,Rainwise IP-100,2013-03-07 16:12:00,
2013-03-07 08:17:00,46.4,42.0,29.69,East,90,4.2,7.5,87,0.00,,,0.00,Rainwise IP-100,2013-03-07 16:17:00,
2013-03-07 08:22:00,46.5,43.0,29.69,ESE,112,1.4,9.3,86,0.00,,,0.00,Rainwise IP-100,2013-03-07 16:22:00,
2013-03-07 08:27:00,46.6,42.0,29.69,ESE,112,1.9,10.5,85,0.00,,,0.00,Rainwise IP-100,2013-03-07 16:27:00,
2013-03-07 08:32:00,46.7,42.0,29.69,ESE,112,3.5,12.4,84,0.00,,,0.00,Rainwise IP-100,2013-03-07 16:32:00,
2013-03-07 08:37:00,46.8,42.0,29.69,ENE,67,4.7,10.0,84,0.00,,,0.00,Rainwise IP-100,2013-03-07 16:37:00,
2013-03-07 08:42:00,47.1,42.0,29.69,ENE,67,7.0,9.8,85,0.00,,,0.00,Rainwise IP-100,2013-03-07 16:42:00,
2013-03-07 08:47:00,47.2,42.0,29.69,ENE,67,2.8,9.8,85,0.00,,,0.00,Rainwise IP-100,2013-03-07 16:47:00,
2013-03-07 08:52:00,47.2,42.0,29.69,NNE,22,6.5,11.0,85,0.00,,,0.00,Rainwise IP-100,2013-03-07 16:52:00,
2013-03-07 08:57:00,47.3,43.0,29.69,East,90,2.1,11.7,86,0.00,,,0.00,Rainwise IP-100,2013-03-07 16:57:00,
2013-03-07 09:02:00,47.4,43.0,29.70,ESE,112,4.7,10.7,86,0.00,,,0.00,Rainwise IP-100,2013-03-07 17:02:00,
2013-03-07 09:07:00,47.4,43.0,29.69,NE,45,3.5,11.2,86,0.00,,,0.00,Rainwise IP-100,2013-03-07 17:07:00,
2013-03-07 09:12:00,47.6,43.0,29.69,East,90,5.6,9.1,86,0.00,,,0.00,Rainwise IP-100,2013-03-07 17:12:00,
2013-03-07 09:17:00,47.9,44.0,29.69,ENE,67,6.3,9.6,85,0.00,,,0.00,Rainwise IP-100,2013-03-07 17:17:00,
2013-03-07 09:22:00,48.1,44.0,29.69,NE,45,5.4,10.7,85,0.00,,,0.00,Rainwise IP-100,2013-03-07 17:22:00,
2013-03-07 09:27:00,48.2,44.0,29.69,ENE,67,2.1,10.3,84,0.00,,,0.00,Rainwise IP-100,2013-03-07 17:27:00,
2013-03-07 09:32:00,48.2,44.0,29.69,ENE,67,3.0,11.0,84,0.00,,,0.00,Rainwise IP-100,2013-03-07 17:32:00,
2013-03-07 09:37:00,48.4,43.0,29.69,ENE,67,3.0,10.0,83,0.00,,,0.00,Rainwise IP-100,2013-03-07 17:37:00,
2013-03-07 09:42:00,48.6,44.0,29.69,East,90,3.7,7.9,82,0.00,,,0.00,Rainwise IP-100,2013-03-07 17:42:00,
2013-03-07 09:47:00,48.6,43.0,29.69,ENE,67,5.1,7.5,81,0.00,,,0.00,Rainwise IP-100,2013-03-07 17:47:00,
2013-03-07 09:52:00,48.6,43.0,29.69,NNE,22,3.7,9.8,81,0.00,,,0.00,Rainwise IP-100,2013-03-07 17:52:00,
2013-03-07 09:57:00,48.8,43.0,29.70,NE,45,6.1,8.6,80,0.00,,,0.00,Rainwise IP-100,2013-03-07 17:57:00,
2013-03-07 10:02:00,49.3,43.0,29.69,ENE,67,4.0,8.6,79,0.00,,,0.00,Rainwise IP-100,2013-03-07 18:02:00,
2013-03-07 10:07:00,49.4,42.0,29.69,ENE,67,2.3,9.1,78,0.00,,,0.00,Rainwise IP-100,2013-03-07 18:07:00,
2013-03-07 10:13:00,49.5,43.0,29.69,ESE,112,3.5,9.6,77,0.00,,,0.00,Rainwise IP-100,2013-03-07 18:13:00,
2013-03-07 10:18:00,49.5,43.0,29.69,ENE,67,6.3,8.6,77,0.00,,,0.00,Rainwise IP-100,2013-03-07 18:18:00,
2013-03-07 10:23:00,49.4,42.0,29.69,ENE,67,5.1,8.6,77,0.00,,,0.00,Rainwise IP-100,2013-03-07 18:23:00,
2013-03-07 10:28:00,49.5,43.0,29.69,NNE,22,2.6,7.7,77,0.00,,,0.00,Rainwise IP-100,2013-03-07 18:28:00,
2013-03-07 10:33:00,49.9,42.0,29.69,ENE,67,8.4,8.4,76,0.00,,,0.00,Rainwise IP-100,2013-03-07 18:33:00,
2013-03-07 10:38:00,50.0,42.0,29.69,ENE,67,5.6,8.4,74,0.00,,,0.00,Rainwise IP-100,2013-03-07 18:38:00,
2013-03-07 10:43:00,50.0,42.0,29.69,NE,45,3.3,6.1,74,0.00,,,0.00,Rainwise IP-100,2013-03-07 18:43:00,
2013-03-07 10:48:00,50.1,42.0,29.68,NE,45,4.4,7.9,74,0.00,,,0.00,Rainwise IP-100,2013-03-07 18:48:00,
2013-03-07 10:53:00,50.1,41.0,29.68,ENE,67,5.8,8.4,73,0.00,,,0.00,Rainwise IP-100,2013-03-07 18:53:00,
2013-03-07 10:58:00,50.2,41.0,29.68,East,90,3.3,8.4,72,0.00,,,0.00,Rainwise IP-100,2013-03-07 18:58:00,
2013-03-07 11:03:00,50.3,42.0,29.69,ESE,112,3.7,8.6,72,0.00,,,0.00,Rainwise IP-100,2013-03-07 19:03:00,
2013-03-07 11:08:00,50.6,41.0,29.68,ENE,67,5.4,9.3,71,0.00,,,0.00,Rainwise IP-100,2013-03-07 19:08:00,
2013-03-07 11:13:00,50.7,41.0,29.68,ENE,67,6.5,9.1,70,0.00,,,0.00,Rainwise IP-100,2013-03-07 19:13:00,
2013-03-07 11:18:00,50.9,42.0,29.68,NNE,22,3.0,7.2,70,0.00,,,0.00,Rainwise IP-100,2013-03-07 19:18:00,
2013-03-07 11:23:00,51.7,42.0,29.69,ENE,67,5.4,5.4,70,0.00,,,0.00,Rainwise IP-100,2013-03-07 19:23:00,
2013-03-07 11:28:00,52.2,42.0,29.68,ESE,112,2.1,8.2,69,0.00,,,0.00,Rainwise IP-100,2013-03-07 19:28:00,
2013-03-07 11:33:00,52.2,41.0,29.68,ENE,67,4.4,8.6,67,0.00,,,0.00,Rainwise IP-100,2013-03-07 19:33:00,
2013-03-07 11:38:00,52.3,40.0,29.68,ENE,67,4.0,8.2,65,0.00,,,0.00,Rainwise IP-100,2013-03-07 19:38:00,
2013-03-07 11:43:00,52.5,41.0,29.68,ENE,67,5.1,6.3,64,0.00,,,0.00,Rainwise IP-100,2013-03-07 19:43:00,
2013-03-07 11:48:00,52.7,40.0,29.68,NE,45,4.4,8.4,63,0.00,,,0.00,Rainwise IP-100,2013-03-07 19:48:00,
2013-03-07 11:53:00,52.6,40.0,29.68,ENE,67,4.9,7.9,62,0.00,,,0.00,Rainwise IP-100,2013-03-07 19:53:00,
2013-03-07 11:58:00,52.7,39.0,29.67,ENE,67,4.7,8.2,61,0.00,,,0.00,Rainwise IP-100,2013-03-07 19:58:00,
2013-03-07 12:03:00,52.9,39.0,29.67,ENE,67,1.6,8.2,61,0.00,,,0.00,Rainwise IP-100,2013-03-07 20:03:00,
2013-03-07 12:08:00,53.2,39.0,29.67,NE,45,3.5,6.1,61,0.00,,,0.00,Rainwise IP-100,2013-03-07 20:08:00,
2013-03-07 12:13:00,53.6,40.0,29.67,South,180,1.6,6.1,60,0.00,,,0.00,Rainwise IP-100,2013-03-07 20:13:00,
2013-03-07 12:18:00,54.1,40.0,29.67,WSW,247,0.0,3.3,60,0.00,,,0.00,Rainwise IP-100,2013-03-07 20:18:00,
2013-03-07 12:23:00,54.3,41.0,29.67,West,270,2.1,6.1,60,0.00,,,0.00,Rainwise IP-100,2013-03-07 20:23:00,
2013-03-07 12:28:00,54.2,40.0,29.66,NE,45,1.9,3.0,60,0.00,,,0.00,Rainwise IP-100,2013-03-07 20:28:00,
2013-03-07 12:33:00,54.4,40.0,29.66,ENE,67,4.0,6.1,59,0.00,,,0.00,Rainwise IP-100,2013-03-07 20:33:00,
2013-03-07 12:38:00,54.1,40.0,29.66,ENE,67,2.6,6.8,59,0.00,,,0.00,Rainwise IP-100,2013-03-07 20:38:00,
2013-03-07 12:43:00,53.4,39.0,29.66,NE,45,3.5,8.2,59,0.00,,,0.00,Rainwise IP-100,2013-03-07 20:43:00,
2013-03-07 12:48:00,53.4,39.0,29.65,NE,45,4.7,6.5,59,0.00,,,0.00,Rainwise IP-100,2013-03-07 20:48:00,
2013-03-07 12:53:00,53.6,39.0,29.65,East,90,4.4,5.4,59,0.00,,,0.00,Rainwise IP-100,2013-03-07 20:53:00,
2013-03-07 12:58:00,53.5,39.0,29.65,NNE,22,6.8,8.4,58,0.00,,,0.00,Rainwise IP-100,2013-03-07 20:58:00,
2013-03-07 13:03:00,54.0,39.0,29.65,NNE,22,3.5,9.8,57,0.00,,,0.00,Rainwise IP-100,2013-03-07 21:03:00,
2013-03-07 13:08:00,54.5,39.0,29.65,ENE,67,0.0,8.9,56,0.00,,,0.00,Rainwise IP-100,2013-03-07 21:08:00,
2013-03-07 13:13:00,54.7,39.0,29.64,ENE,67,8.9,8.9,55,0.00,,,0.00,Rainwise IP-100,2013-03-07 21:13:00,
2013-03-07 13:18:00,54.3,38.0,29.65,NE,45,6.1,9.6,54,0.00,,,0.00,Rainwise IP-100,2013-03-07 21:18:00,
2013-03-07 13:23:00,54.2,38.0,29.65,NNE,22,4.2,8.6,54,0.00,,,0.00,Rainwise IP-100,2013-03-07 21:23:00,
2013-03-07 13:28:00,54.4,38.0,29.64,NE,45,2.8,6.8,54,0.00,,,0.00,Rainwise IP-100,2013-03-07 21:28:00,
2013-03-07 13:33:00,54.1,37.0,29.65,NE,45,6.8,10.3,53,0.00,,,0.00,Rainwise IP-100,2013-03-07 21:33:00,
2013-03-07 13:38:00,53.8,37.0,29.65,WSW,247,1.6,9.6,53,0.00,,,0.00,Rainwise IP-100,2013-03-07 21:38:00,
2013-03-07 13:43:00,53.5,38.0,29.64,SSW,202,5.8,11.0,55,0.00,,,0.00,Rainwise IP-100,2013-03-07 21:43:00,
2013-03-07 13:48:00,53.1,39.0,29.64,SSW,202,4.9,8.9,60,0.00,,,0.00,Rainwise IP-100,2013-03-07 21:48:00,
2013-03-07 13:53:00,52.5,40.0,29.64,SSW,202,6.1,10.3,63,0.00,,,0.00,Rainwise IP-100,2013-03-07 21:53:00,
2013-03-07 13:58:00,51.9,41.0,29.63,SW,225,5.1,9.6,66,0.00,,,0.00,Rainwise IP-100,2013-03-07 21:58:00,
2013-03-07 14:03:00,51.5,42.0,29.64,WSW,247,5.4,9.8,69,0.00,,,0.00,Rainwise IP-100,2013-03-07 22:03:00,
2013-03-07 14:08:00,51.3,42.0,29.64,WSW,247,0.0,9.6,70,0.00,,,0.00,Rainwise IP-100,2013-03-07 22:08:00,
2013-03-07 14:13:00,51.6,42.0,29.63,WSW,247,4.7,7.2,70,0.00,,,0.00,Rainwise IP-100,2013-03-07 22:13:00,
2013-03-07 14:18:00,51.7,42.0,29.64,WSW,247,5.6,8.6,70,0.00,,,0.00,Rainwise IP-100,2013-03-07 22:18:00,
2013-03-07 14:23:00,51.3,42.0,29.64,West,270,4.7,8.2,71,0.00,,,0.00,Rainwise IP-100,2013-03-07 22:23:00,
2013-03-07 14:28:00,51.0,42.0,29.64,WNW,292,1.9,7.9,71,0.00,,,0.00,Rainwise IP-100,2013-03-07 22:28:00,
2013-03-07 14:33:00,50.6,42.0,29.64,SW,225,4.7,9.8,72,0.00,,,0.00,Rainwise IP-100,2013-03-07 22:33:00,
2013-03-07 14:38:00,50.5,42.0,29.63,SW,225,6.1,7.0,73,0.00,,,0.00,Rainwise IP-100,2013-03-07 22:38:00,
2013-03-07 14:43:00,50.3,43.0,29.63,West,270,4.4,8.4,75,0.00,,,0.00,Rainwise IP-100,2013-03-07 22:43:00,
2013-03-07 14:48:00,50.1,43.0,29.63,SSW,202,4.7,7.2,77,0.00,,,0.00,Rainwise IP-100,2013-03-07 22:48:00,
2013-03-07 14:53:00,49.8,43.0,29.63,SSW,202,3.3,7.2,78,0.00,,,0.00,Rainwise IP-100,2013-03-07 22:53:00,
2013-03-07 14:58:00,49.6,43.0,29.63,SSW,202,6.1,6.1,79,0.00,,,0.00,Rainwise IP-100,2013-03-07 22:58:00,
2013-03-07 15:03:00,49.5,43.0,29.63,SW,225,6.1,8.2,79,0.00,,,0.00,Rainwise IP-100,2013-03-07 23:03:00,
2013-03-07 15:08:00,49.4,43.0,29.63,WSW,247,4.9,8.9,79,0.00,,,0.00,Rainwise IP-100,2013-03-07 23:08:00,
2013-03-07 15:13:00,49.4,43.0,29.63,WSW,247,4.4,8.6,79,0.00,,,0.00,Rainwise IP-100,2013-03-07 23:13:00,
2013-03-07 15:18:00,49.5,43.0,29.63,West,270,2.6,9.1,79,0.00,,,0.00,Rainwise IP-100,2013-03-07 23:18:00,
2013-03-07 15:23:00,49.3,43.0,29.63,WSW,247,2.8,7.2,80,0.00,,,0.00,Rainwise IP-100,2013-03-07 23:23:00,
2013-03-07 15:28:00,49.1,43.0,29.63,SSW,202,3.7,7.0,81,0.00,,,0.00,Rainwise IP-100,2013-03-07 23:28:00,
2013-03-07 15:33:00,49.2,43.0,29.63,SSW,202,6.5,7.7,80,0.00,,,0.00,Rainwise IP-100,2013-03-07 23:33:00,
2013-03-07 15:38:00,49.3,43.0,29.62,SSW,202,6.1,7.7,80,0.00,,,0.00,Rainwise IP-100,2013-03-07 23:38:00,
2013-03-07 15:43:00,49.2,43.0,29.62,SW,225,2.3,7.9,79,0.00,,,0.00,Rainwise IP-100,2013-03-07 23:43:00,
2013-03-07 15:48:00,49.1,43.0,29.62,SSW,202,4.9,8.6,79,0.00,,,0.00,Rainwise IP-100,2013-03-07 23:48:00,
2013-03-07 15:53:00,49.0,43.0,29.62,SSW,202,5.6,8.4,79,0.00,,,0.00,Rainwise IP-100,2013-03-07 23:53:00,
2013-03-07 15:58:00,48.9,43.0,29.62,WSW,247,3.0,6.8,79,0.00,,,0.00,Rainwise IP-100,2013-03-07 23:58:00,
2013-03-07 16:03:00,48.8,43.0,29.62,West,270,4.7,5.8,80,0.00,,,0.00,Rainwise IP-100,2013-03-08 00:03:00,
2013-03-07 16:08:00,48.7,43.0,29.62,WSW,247,3.0,6.3,81,0.00,,,0.00,Rainwise IP-100,2013-03-08 00:08:00,
2013-03-07 16:13:00,48.6,44.0,29.62,SW,225,6.3,6.3,82,0.00,,,0.00,Rainwise IP-100,2013-03-08 00:13:00,
2013-03-07 16:18:00,48.4,43.0,29.62,SSW,202,6.1,8.2,83,0.00,,,0.00,Rainwise IP-100,2013-03-08 00:18:00,
2013-03-07 16:23:00,48.3,43.0,29.62,WSW,247,5.8,8.4,83,0.00,,,0.00,Rainwise IP-100,2013-03-08 00:23:00,
2013-03-07 16:28:00,48.4,44.0,29.62,West,270,4.2,7.5,84,0.00,,,0.00,Rainwise IP-100,2013-03-08 00:28:00,
2013-03-07 16:33:00,48.5,44.0,29.62,SSW,202,5.1,6.1,84,0.00,,,0.00,Rainwise IP-100,2013-03-08 00:33:00,
2013-03-07 16:38:00,48.4,44.0,29.62,SW,225,2.8,8.4,85,0.00,,,0.00,Rainwise IP-100,2013-03-08 00:38:00,
2013-03-07 16:43:00,48.2,44.0,29.62,SW,225,4.0,11.0,85,0.00,,,0.00,Rainwise IP-100,2013-03-08 00:43:00,
2013-03-07 16:48:00,48.1,44.0,29.62,SSW,202,4.2,8.4,84,0.00,,,0.00,Rainwise IP-100,2013-03-08 00:48:00,
2013-03-07 16:53:00,48.1,44.0,29.62,SW,225,3.7,7.2,85,0.00,,,0.00,Rainwise IP-100,2013-03-08 00:53:00,
2013-03-07 16:58:00,48.1,44.0,29.62,SW,225,3.0,7.0,85,0.00,,,0.00,Rainwise IP-100,2013-03-08 00:58:00,
2013-03-07 17:03:00,48.2,44.0,29.62,WSW,247,4.9,7.7,85,0.00,,,0.00,Rainwise IP-100,2013-03-08 01:03:00,
2013-03-07 17:08:00,48.2,44.0,29.61,SW,225,3.5,8.4,85,0.00,,,0.00,Rainwise IP-100,2013-03-08 01:08:00,
2013-03-07 17:13:00,48.2,44.0,29.61,South,180,2.8,8.2,85,0.00,,,0.00,Rainwise IP-100,2013-03-08 01:13:00,
2013-03-07 17:18:00,48.2,44.0,29.61,West,270,5.4,7.2,86,0.00,,,0.00,Rainwise IP-100,2013-03-08 01:18:00,
2013-03-07 17:23:00,48.2,44.0,29.62,WSW,247,4.9,7.7,85,0.00,,,0.00,Rainwise IP-100,2013-03-08 01:23:00,
2013-03-07 17:28:00,48.2,44.0,29.62,WSW,247,5.1,6.8,85,0.00,,,0.00,Rainwise IP-100,2013-03-08 01:28:00,
2013-03-07 17:33:00,48.2,44.0,29.62,SW,225,3.7,6.3,85,0.00,,,0.00,Rainwise IP-100,2013-03-08 01:33:00,
2013-03-07 17:38:00,48.3,44.0,29.62,WSW,247,3.0,5.4,85,0.00,,,0.00,Rainwise IP-100,2013-03-08 01:38:00,
2013-03-07 17:43:00,48.4,44.0,29.62,WNW,292,3.0,4.4,85,0.00,,,0.00,Rainwise IP-100,2013-03-08 01:43:00,
2013-03-07 17:48:00,48.3,44.0,29.62,ENE,67,2.3,3.7,86,0.00,,,0.00,Rainwise IP-100,2013-03-08 01:48:00,
2013-03-07 17:53:00,48.1,45.0,29.62,NNE,22,0.0,5.6,87,0.00,,,0.00,Rainwise IP-100,2013-03-08 01:53:00,
2013-03-07 17:58:00,47.9,45.0,29.62,WSW,247,1.6,4.0,87,0.00,,,0.00,Rainwise IP-100,2013-03-08 01:58:00,
2013-03-07 18:03:00,47.8,45.0,29.62,West,270,1.9,4.7,87,0.00,,,0.00,Rainwise IP-100,2013-03-08 02:03:00,
2013-03-07 18:08:00,47.8,45.0,29.62,West,270,2.6,3.5,87,0.06,,,0.01,Rainwise IP-100,2013-03-08 02:08:00,
2013-03-07 18:13:00,47.9,45.0,29.61,WSW,247,2.1,5.8,87,0.06,,,0.01,Rainwise IP-100,2013-03-08 02:13:00,
2013-03-07 18:18:00,47.9,45.0,29.62,SW,225,0.0,6.1,88,0.00,,,0.01,Rainwise IP-100,2013-03-08 02:18:00,
2013-03-07 18:23:00,47.9,45.0,29.61,West,270,4.9,7.5,88,0.00,,,0.01,Rainwise IP-100,2013-03-08 02:23:00,
2013-03-07 18:28:00,47.8,45.0,29.62,WSW,247,3.0,6.5,89,0.00,,,0.01,Rainwise IP-100,2013-03-08 02:28:00,
2013-03-07 18:33:00,47.6,44.0,29.62,SW,225,3.7,7.5,89,0.06,,,0.02,Rainwise IP-100,2013-03-08 02:33:00,
2013-03-07 18:38:00,47.4,45.0,29.61,SSW,202,7.0,8.6,90,0.06,,,0.02,Rainwise IP-100,2013-03-08 02:38:00,
2013-03-07 18:43:00,47.3,45.0,29.61,SW,225,4.9,8.9,91,0.00,,,0.02,Rainwise IP-100,2013-03-08 02:43:00,
2013-03-07 18:48:00,47.3,45.0,29.61,SSW,202,3.3,8.2,91,0.00,,,0.02,Rainwise IP-100,2013-03-08 02:48:00,
2013-03-07 18:53:00,47.4,45.0,29.62,SW,225,4.2,6.8,92,0.00,,,0.02,Rainwise IP-100,2013-03-08 02:53:00,
2013-03-07 18:58:00,47.4,45.0,29.62,SSW,202,4.0,6.8,92,0.00,,,0.02,Rainwise IP-100,2013-03-08 02:58:00,
2013-03-07 19:03:00,47.4,45.0,29.62,WNW,292,2.8,6.3,92,0.00,,,0.02,Rainwise IP-100,2013-03-08 03:03:00,
2013-03-07 19:08:00,47.2,44.0,29.62,SW,225,1.2,5.6,92,0.00,,,0.02,Rainwise IP-100,2013-03-08 03:08:00,
2013-03-07 19:13:00,47.1,44.0,29.62,SSW,202,2.1,4.7,92,0.00,,,0.02,Rainwise IP-100,2013-03-08 03:13:00,
2013-03-07 19:18:00,47.0,44.0,29.62,WSW,247,4.0,6.1,92,0.00,,,0.02,Rainwise IP-100,2013-03-08 03:18:00,
2013-03-07 19:23:00,47.1,45.0,29.62,WSW,247,2.3,5.4,93,0.00,,,0.02,Rainwise IP-100,2013-03-08 03:23:00,
2013-03-07 19:28:00,47.2,45.0,29.62,WSW,247,4.4,4.9,93,0.00,,,0.02,Rainwise IP-100,2013-03-08 03:28:00,
2013-03-07 19:33:00,47.0,45.0,29.62,WSW,247,2.3,4.9,93,0.00,,,0.02,Rainwise IP-100,2013-03-08 03:33:00,
2013-03-07 19:38:00,46.9,45.0,29.62,SW,225,2.3,6.3,93,0.00,,,0.02,Rainwise IP-100,2013-03-08 03:38:00,
2013-03-07 19:43:00,46.9,45.0,29.63,WSW,247,0.0,6.1,93,0.00,,,0.02,Rainwise IP-100,2013-03-08 03:43:00,
2013-03-07 19:48:00,46.9,45.0,29.62,WSW,247,6.1,6.5,93,0.00,,,0.02,Rainwise IP-100,2013-03-08 03:48:00,
2013-03-07 19:53:00,47.0,44.0,29.62,WSW,247,4.9,7.0,92,0.00,,,0.02,Rainwise IP-100,2013-03-08 03:53:00,
2013-03-07 19:58:00,47.0,44.0,29.62,WSW,247,4.4,6.3,92,0.00,,,0.02,Rainwise IP-100,2013-03-08 03:58:00,
2013-03-07 20:03:00,47.1,44.0,29.62,WNW,292,3.0,4.7,92,0.00,,,0.02,Rainwise IP-100,2013-03-08 04:03:00,
2013-03-07 20:08:00,46.9,44.0,29.62,WSW,247,2.8,5.4,92,0.00,,,0.02,Rainwise IP-100,2013-03-08 04:08:00,
2013-03-07 20:13:00,46.7,44.0,29.62,SSW,202,2.3,4.4,92,0.00,,,0.02,Rainwise IP-100,2013-03-08 04:13:00,
2013-03-07 20:18:00,46.7,44.0,29.63,WSW,247,1.9,5.1,92,0.00,,,0.02,Rainwise IP-100,2013-03-08 04:18:00,
2013-03-07 20:23:00,46.8,44.0,29.63,SSW,202,2.1,4.7,92,0.00,,,0.02,Rainwise IP-100,2013-03-08 04:23:00,
2013-03-07 20:28:00,46.8,44.0,29.63,SW,225,3.5,4.7,92,0.00,,,0.02,Rainwise IP-100,2013-03-08 04:28:00,
2013-03-07 20:33:00,46.8,44.0,29.63,WSW,247,1.6,4.4,92,0.00,,,0.02,Rainwise IP-100,2013-03-08 04:33:00,
2013-03-07 20:38:00,46.7,44.0,29.63,WSW,247,5.1,5.8,92,0.00,,,0.02,Rainwise IP-100,2013-03-08 04:38:00,
2013-03-07 20:43:00,46.8,44.0,29.63,SSW,202,1.6,7.7,92,0.00,,,0.02,Rainwise IP-100,2013-03-08 04:43:00,
2013-03-07 20:48:00,47.0,44.0,29.63,West,270,4.0,6.3,92,0.00,,,0.02,Rainwise IP-100,2013-03-08 04:48:00,
2013-03-07 20:53:00,47.0,44.0,29.63,West,270,0.0,6.1,92,0.00,,,0.02,Rainwise IP-100,2013-03-08 04:53:00,
2013-03-07 20:58:00,46.8,44.0,29.62,SSW,202,4.9,6.5,92,0.00,,,0.02,Rainwise IP-100,2013-03-08 04:58:00,
2013-03-07 21:00:00,46.7,44.0,29.63,WSW,247,4.0,6.5,92,0.00,,,0.02,Rainwise IP-100,2013-03-08 05:00:00,
2013-03-07 21:05:00,46.6,44.0,29.63,SSW,202,5.6,6.5,92,0.00,,,0.02,Rainwise IP-100,2013-03-08 05:05:00,
2013-03-07 21:10:00,46.6,44.0,29.63,WNW,292,1.4,7.0,92,0.00,,,0.02,Rainwise IP-100,2013-03-08 05:10:00,
2013-03-07 21:15:00,46.6,44.0,29.64,WSW,247,5.8,5.8,92,0.00,,,0.02,Rainwise IP-100,2013-03-08 05:15:00,
2013-03-07 21:20:00,46.5,44.0,29.63,WSW,247,2.1,5.8,92,0.00,,,0.02,Rainwise IP-100,2013-03-08 05:20:00,
2013-03-07 21:25:00,46.5,45.0,29.64,WSW,247,1.2,7.7,93,0.00,,,0.02,Rainwise IP-100,2013-03-08 05:25:00,
2013-03-07 21:30:00,46.5,45.0,29.64,West,270,2.3,6.1,93,0.00,,,0.02,Rainwise IP-100,2013-03-08 05:30:00,
2013-03-07 21:32:00,46.5,45.0,29.64,West,270,3.7,4.9,93,0.00,,,0.02,Rainwise IP-100,2013-03-08 05:32:00,
2013-03-07 21:37:00,46.5,45.0,29.64,SW,225,7.0,7.0,93,0.00,,,0.02,Rainwise IP-100,2013-03-08 05:37:00,
2013-03-07 21:42:00,46.5,45.0,29.64,SW,225,1.6,7.5,93,0.00,,,0.02,Rainwise IP-100,2013-03-08 05:42:00,
2013-03-07 21:47:00,46.5,45.0,29.64,WSW,247,3.0,6.8,93,0.06,,,0.03,Rainwise IP-100,2013-03-08 05:47:00,
2013-03-07 21:52:00,46.5,45.0,29.64,SSW,202,4.2,6.3,93,0.06,,,0.03,Rainwise IP-100,2013-03-08 05:52:00,
2013-03-07 21:57:00,46.5,45.0,29.64,SSW,202,1.6,4.7,93,0.00,,,0.03,Rainwise IP-100,2013-03-08 05:57:00,
2013-03-07 22:02:00,46.4,44.0,29.64,West,270,2.3,6.1,94,0.00,,,0.03,Rainwise IP-100,2013-03-08 06:02:00,
2013-03-07 22:07:00,46.4,44.0,29.63,WSW,247,3.7,6.1,94,0.00,,,0.03,Rainwise IP-100,2013-03-08 06:07:00,
2013-03-07 22:12:00,46.4,44.0,29.63,SSW,202,3.0,5.8,94,0.00,,,0.03,Rainwise IP-100,2013-03-08 06:12:00,
2013-03-07 22:17:00,46.4,44.0,29.64,WSW,247,2.8,5.1,94,0.00,,,0.03,Rainwise IP-100,2013-03-08 06:17:00,
2013-03-07 22:22:00,46.4,44.0,29.63,SW,225,2.6,5.8,95,0.00,,,0.03,Rainwise IP-100,2013-03-08 06:22:00,
2013-03-07 22:27:00,46.4,44.0,29.63,SW,225,3.0,5.8,95,0.00,,,0.03,Rainwise IP-100,2013-03-08 06:27:00,
2013-03-07 22:32:00,46.4,44.0,29.63,West,270,1.9,4.9,95,0.00,,,0.03,Rainwise IP-100,2013-03-08 06:32:00,
2013-03-07 22:37:00,46.4,44.0,29.62,SW,225,1.9,6.3,95,0.00,,,0.03,Rainwise IP-100,2013-03-08 06:37:00,
2013-03-07 22:42:00,46.4,44.0,29.62,SW,225,3.0,5.6,95,0.00,,,0.03,Rainwise IP-100,2013-03-08 06:42:00,
2013-03-07 22:47:00,46.4,45.0,29.63,WSW,247,1.9,7.2,96,0.00,,,0.03,Rainwise IP-100,2013-03-08 06:47:00,
2013-03-07 22:52:00,46.4,45.0,29.62,SW,225,4.0,5.8,96,0.00,,,0.03,Rainwise IP-100,2013-03-08 06:52:00,
2013-03-07 22:57:00,46.4,45.0,29.62,SW,225,3.3,7.5,96,0.00,,,0.03,Rainwise IP-100,2013-03-08 06:57:00,
2013-03-07 23:00:00,46.4,45.0,29.62,WSW,247,3.5,7.2,96,0.00,,,0.03,Rainwise IP-100,2013-03-08 07:00:00,
2013-03-07 23:05:00,46.4,45.0,29.62,SW,225,3.7,5.8,96,0.00,,,0.03,Rainwise IP-100,2013-03-08 07:05:00,
2013-03-07 23:10:00,46.5,46.0,29.62,SW,225,4.9,6.8,96,0.00,,,0.03,Rainwise IP-100,2013-03-08 07:10:00,
2013-03-07 23:15:00,46.5,46.0,29.62,SW,225,2.8,7.9,96,0.00,,,0.03,Rainwise IP-100,2013-03-08 07:15:00,
2013-03-07 23:16:00,46.5,46.0,29.62,WSW,247,3.3,7.9,96,0.00,,,0.03,Rainwise IP-100,2013-03-08 07:16:00,
2013-03-07 23:21:00,46.6,46.0,29.62,West,270,5.6,5.6,96,0.00,,,0.03,Rainwise IP-100,2013-03-08 07:21:00,
2013-03-07 23:26:00,46.6,46.0,29.62,SW,225,6.1,7.7,96,0.00,,,0.03,Rainwise IP-100,2013-03-08 07:26:00,
2013-03-07 23:31:00,46.5,46.0,29.62,SSW,202,4.0,7.5,96,0.00,,,0.03,Rainwise IP-100,2013-03-08 07:31:00,
2013-03-07 23:36:00,46.6,46.0,29.61,SW,225,2.3,5.1,96,0.00,,,0.03,Rainwise IP-100,2013-03-08 07:36:00,
2013-03-07 23:41:00,46.7,46.0,29.61,SSW,202,3.7,6.3,96,0.00,,,0.03,Rainwise IP-100,2013-03-08 07:41:00,
2013-03-07 23:46:00,46.8,46.0,29.61,SSW,202,4.7,6.1,96,0.00,,,0.03,Rainwise IP-100,2013-03-08 07:46:00,
2013-03-07 23:51:00,46.8,46.0,29.61,SW,225,3.7,5.8,96,0.00,,,0.03,Rainwise IP-100,2013-03-08 07:51:00,
2013-03-07 23:56:00,46.8,46.0,29.61,WSW,247,2.6,6.1,96,0.00,,,0.03,Rainwise IP-100,2013-03-08 07:56:00,